DLH8J LFPG-EDDF

Flight info

Callsign DLH8J
Flight time 0h 53m
Altitude 23000
Route RANUX DCT VALEK DCT LIPNI UN858 LIMGO Z111 RAMOB IMCOM1A
Aircraft A320/M-SDE3FGHIRWY/LB1

Departure

Time 2026-05-07 09:46
Airport Charles de Gaulle International Airport (LFPG)

Arrival

Time 2026-05-07 10:39
Airport Frankfurt Main Airport (EDDF)
Time Latitude Longitude Altitude Speed Heading
2026-05-07 09:19 49.01714 2.54092 362 ft 0 kts 209°
2026-05-07 09:37 49.01723 2.54099 362 ft 3 kts 208°
2026-05-07 09:38 49.01741 2.54113 354 ft 3 kts 204°
2026-05-07 09:38 49.01759 2.54125 354 ft 3 kts 204°
2026-05-07 09:38 49.01777 2.54138 362 ft 3 kts 210°
2026-05-07 09:38 49.01794 2.54154 357 ft 3 kts 214°
2026-05-07 09:39 49.01810 2.54169 362 ft 3 kts 184°
2026-05-07 09:39 49.01814 2.54179 364 ft 2 kts 108°
2026-05-07 09:39 49.01814 2.54182 364 ft 0 kts 93°
2026-05-07 09:42 49.01814 2.54183 364 ft 1 kts 93°
2026-05-07 09:42 49.01815 2.54267 357 ft 15 kts 88°
2026-05-07 09:42 49.01828 2.54480 359 ft 24 kts 83°
2026-05-07 09:43 49.01842 2.54737 354 ft 25 kts 85°
2026-05-07 09:43 49.01859 2.55005 354 ft 26 kts 84°
2026-05-07 09:43 49.01872 2.55290 354 ft 28 kts 86°
2026-05-07 09:43 49.01888 2.55587 354 ft 29 kts 85°
2026-05-07 09:44 49.01907 2.55895 354 ft 30 kts 84°
2026-05-07 09:44 49.01926 2.56210 354 ft 26 kts 85°
2026-05-07 09:44 49.01999 2.56321 354 ft 14 kts 343°
2026-05-07 09:44 49.02098 2.56314 354 ft 15 kts 358°
2026-05-07 09:45 49.02211 2.56300 357 ft 17 kts 353°
2026-05-07 09:45 49.02300 2.56183 360 ft 18 kts 301°
2026-05-07 09:45 49.02321 2.55999 355 ft 18 kts 249°
2026-05-07 09:45 49.02302 2.55786 355 ft 28 kts 265°
2026-05-07 09:46 49.02266 2.55080 354 ft 107 kts 265°
2026-05-07 09:46 49.02193 2.53608 363 ft 168 kts 267°
2026-05-07 09:46 49.02080 2.51816 944 ft 178 kts 264°
2026-05-07 09:46 49.01961 2.49937 1836 ft 180 kts 265°
2026-05-07 09:47 49.01855 2.47942 2337 ft 199 kts 266°
2026-05-07 09:47 49.01742 2.45726 2762 ft 219 kts 266°
2026-05-07 09:47 49.01715 2.43327 3354 ft 237 kts 281°
2026-05-07 09:47 49.02411 2.41052 4226 ft 241 kts 313°
2026-05-07 09:48 49.03760 2.39448 4915 ft 256 kts 327°
2026-05-07 09:48 49.05302 2.37973 5752 ft 265 kts 329°
2026-05-07 09:48 49.06898 2.36489 6641 ft 272 kts 328°
2026-05-07 09:48 49.08533 2.34972 7505 ft 277 kts 328°
2026-05-07 09:49 49.10221 2.33504 8373 ft 282 kts 338°
2026-05-07 09:49 49.12160 2.33021 9242 ft 288 kts
2026-05-07 09:49 49.14086 2.33906 10131 ft 293 kts 30°
2026-05-07 09:49 49.15596 2.36005 10912 ft 298 kts 56°
2026-05-07 09:50 49.16375 2.38934 11627 ft 306 kts 81°
2026-05-07 09:50 49.16204 2.42255 11894 ft 327 kts 109°
2026-05-07 09:50 49.15319 2.45585 12112 ft 350 kts 114°
2026-05-07 09:50 49.14320 2.49112 12361 ft 370 kts 114°
2026-05-07 09:51 49.13284 2.52753 12960 ft 378 kts 114°
2026-05-07 09:51 49.12234 2.56471 13650 ft 383 kts 114°
2026-05-07 09:51 49.11194 2.60185 14293 ft 387 kts 114°
2026-05-07 09:51 49.10160 2.64001 14922 ft 391 kts 110°
2026-05-07 09:52 49.09472 2.68032 15545 ft 395 kts 99°
2026-05-07 09:52 49.09253 2.72235 16166 ft 399 kts 90°
2026-05-07 09:52 49.09248 2.76494 16776 ft 402 kts 90°
2026-05-07 09:52 49.09236 2.80785 17372 ft 406 kts 90°
2026-05-07 09:53 49.09218 2.85107 17956 ft 409 kts 90°
2026-05-07 09:53 49.09196 2.89469 18519 ft 413 kts 90°
2026-05-07 09:53 49.09167 2.93862 19021 ft 416 kts 91°
2026-05-07 09:53 49.09134 2.98291 19524 ft 419 kts 91°
2026-05-07 09:54 49.09100 3.02755 20030 ft 422 kts 91°
2026-05-07 09:54 49.09067 3.07237 20525 ft 425 kts 91°
2026-05-07 09:54 49.09033 3.11761 21014 ft 428 kts 91°
2026-05-07 09:54 49.08996 3.16314 21491 ft 430 kts 91°
2026-05-07 09:55 49.08958 3.20895 21949 ft 433 kts 91°
2026-05-07 09:55 49.08917 3.25507 22422 ft 436 kts 91°
2026-05-07 09:55 49.08875 3.30151 22868 ft 439 kts 91°
2026-05-07 09:55 49.08830 3.34825 23048 ft 442 kts 91°
2026-05-07 09:56 49.08785 3.39581 23072 ft 454 kts 91°
2026-05-07 09:56 49.08733 3.44450 23067 ft 463 kts 91°
2026-05-07 09:56 49.08675 3.49375 23068 ft 465 kts 91°
2026-05-07 09:56 49.08631 3.54306 23061 ft 466 kts 89°
2026-05-07 09:57 49.08884 3.59239 23067 ft 467 kts 84°
2026-05-07 09:57 49.09224 3.64162 23065 ft 467 kts 84°
2026-05-07 09:57 49.09564 3.69078 23066 ft 467 kts 84°
2026-05-07 09:57 49.09898 3.73973 23064 ft 475 kts 84°
2026-05-07 09:58 49.10235 3.79032 23060 ft 483 kts 84°
2026-05-07 09:58 49.10574 3.84158 23060 ft 486 kts 84°
2026-05-07 09:58 49.10910 3.89299 23061 ft 487 kts 84°
2026-05-07 09:58 49.11247 3.94442 23059 ft 487 kts 84°
2026-05-07 09:59 49.11578 3.99587 23059 ft 487 kts 85°
2026-05-07 09:59 49.11907 4.04750 23059 ft 487 kts 85°
2026-05-07 09:59 49.12235 4.09901 23053 ft 487 kts 85°
2026-05-07 09:59 49.12564 4.15044 23058 ft 487 kts 84°
2026-05-07 10:00 49.12894 4.20194 23056 ft 487 kts 85°
2026-05-07 10:00 49.13218 4.25348 23055 ft 487 kts 85°
2026-05-07 10:00 49.13536 4.30501 23056 ft 487 kts 85°
2026-05-07 10:00 49.14055 4.35605 23048 ft 488 kts 77°
2026-05-07 10:01 49.15075 4.40549 23052 ft 487 kts 68°
2026-05-07 10:01 49.16377 4.45324 23050 ft 487 kts 67°
2026-05-07 10:01 49.17680 4.50099 23054 ft 486 kts 67°
2026-05-07 10:01 49.18978 4.54871 23052 ft 486 kts 67°
2026-05-07 10:02 49.20271 4.59644 23056 ft 486 kts 67°
2026-05-07 10:02 49.21560 4.64433 23061 ft 486 kts 67°
2026-05-07 10:02 49.22841 4.69209 23053 ft 486 kts 67°
2026-05-07 10:02 49.24124 4.73992 23050 ft 486 kts 67°
2026-05-07 10:03 49.25406 4.78775 23048 ft 486 kts 67°
2026-05-07 10:03 49.26674 4.83500 23043 ft 486 kts 67°
2026-05-07 10:03 49.27958 4.88294 23043 ft 486 kts 67°
2026-05-07 10:03 49.29237 4.93089 23046 ft 486 kts 67°
2026-05-07 10:04 49.30515 4.97891 23046 ft 485 kts 67°
2026-05-07 10:04 49.31784 5.02677 23044 ft 485 kts 67°
2026-05-07 10:04 49.33049 5.07475 23043 ft 485 kts 68°
2026-05-07 10:04 49.34313 5.12272 23045 ft 485 kts 68°
2026-05-07 10:05 49.35577 5.17069 23041 ft 485 kts 68°
2026-05-07 10:05 49.36840 5.21858 23040 ft 485 kts 67°
2026-05-07 10:05 49.38106 5.26662 23038 ft 485 kts 68°
2026-05-07 10:05 49.39366 5.31470 23038 ft 485 kts 68°
2026-05-07 10:06 49.40618 5.36268 23044 ft 485 kts 68°
2026-05-07 10:06 49.41872 5.41086 23047 ft 484 kts 68°
2026-05-07 10:06 49.43121 5.45885 23050 ft 484 kts 67°
2026-05-07 10:06 49.44371 5.50686 23050 ft 484 kts 67°
2026-05-07 10:07 49.45605 5.55427 23047 ft 484 kts 67°
2026-05-07 10:07 49.46851 5.60226 23046 ft 484 kts 68°
2026-05-07 10:07 49.48094 5.65035 23043 ft 483 kts 68°
2026-05-07 10:07 49.49334 5.69847 23044 ft 483 kts 68°
2026-05-07 10:08 49.50565 5.74654 23040 ft 483 kts 68°
2026-05-07 10:08 49.51793 5.79471 23041 ft 483 kts 68°
2026-05-07 10:08 49.52992 5.84304 23045 ft 483 kts 69°
2026-05-07 10:08 49.54169 5.89152 23043 ft 483 kts 69°
2026-05-07 10:09 49.55345 5.93996 23043 ft 483 kts 69°
2026-05-07 10:09 49.56528 5.98848 23044 ft 483 kts 68°
2026-05-07 10:09 49.57718 6.03693 23044 ft 483 kts 68°
2026-05-07 10:09 49.58908 6.08519 23052 ft 483 kts 68°
2026-05-07 10:10 49.60103 6.13368 23053 ft 483 kts 68°
2026-05-07 10:10 49.61295 6.18210 23056 ft 482 kts 68°
2026-05-07 10:10 49.62479 6.23039 23057 ft 482 kts 69°
2026-05-07 10:10 49.63726 6.27839 23056 ft 481 kts 64°
2026-05-07 10:11 49.65347 6.32358 23058 ft 480 kts 58°
2026-05-07 10:11 49.67059 6.36779 23053 ft 480 kts 58°
2026-05-07 10:11 49.68767 6.41214 23049 ft 480 kts 58°
2026-05-07 10:11 49.69895 6.44156 23047 ft 480 kts 58°
2026-05-07 10:12 49.71635 6.48558 23036 ft 479 kts 54°
2026-05-07 10:12 49.73710 6.52578 23028 ft 478 kts 46°
2026-05-07 10:12 49.76154 6.56051 23021 ft 477 kts 38°
2026-05-07 10:12 49.78741 6.59258 22992 ft 477 kts 38°
2026-05-07 10:13 49.81327 6.62469 23010 ft 477 kts 38°
2026-05-07 10:13 49.83921 6.65702 23010 ft 477 kts 38°
2026-05-07 10:13 49.86502 6.68921 23008 ft 477 kts 38°
2026-05-07 10:13 49.89084 6.72147 23003 ft 476 kts 38°
2026-05-07 10:14 49.91652 6.75366 22992 ft 477 kts 38°
2026-05-07 10:14 49.94231 6.78607 23032 ft 477 kts 38°
2026-05-07 10:14 49.96817 6.81859 23027 ft 476 kts 38°
2026-05-07 10:14 49.99356 6.85060 23035 ft 476 kts 38°
2026-05-07 10:15 50.01926 6.88307 23032 ft 476 kts 38°
2026-05-07 10:15 50.04500 6.91559 23020 ft 476 kts 38°
2026-05-07 10:15 50.07075 6.94813 23016 ft 476 kts 38°
2026-05-07 10:15 50.09645 6.98065 23020 ft 476 kts 38°
2026-05-07 10:16 50.12213 7.01316 22817 ft 474 kts 38°
2026-05-07 10:16 50.14691 7.04462 22388 ft 442 kts 38°
2026-05-07 10:16 50.17001 7.07404 22286 ft 428 kts 38°
2026-05-07 10:16 50.19320 7.10362 22189 ft 431 kts 38°
2026-05-07 10:17 50.21639 7.13324 22095 ft 431 kts 37°
2026-05-07 10:17 50.23862 7.16456 21979 ft 430 kts 46°
2026-05-07 10:17 50.25546 7.20312 21866 ft 432 kts 63°
2026-05-07 10:17 50.26549 7.24742 21767 ft 434 kts 77°
2026-05-07 10:18 50.26826 7.29449 21269 ft 438 kts 91°
2026-05-07 10:18 50.26304 7.34142 20339 ft 441 kts 108°
2026-05-07 10:18 50.24980 7.38447 19446 ft 441 kts 123°
2026-05-07 10:18 50.23211 7.42297 18572 ft 442 kts 126°
2026-05-07 10:19 50.21403 7.46184 17615 ft 442 kts 125°
2026-05-07 10:19 50.19608 7.50064 16777 ft 440 kts 125°
2026-05-07 10:19 50.17825 7.53934 15953 ft 437 kts 125°
2026-05-07 10:19 50.16081 7.57715 15153 ft 432 kts 125°
2026-05-07 10:20 50.14369 7.61416 14410 ft 411 kts 125°
2026-05-07 10:20 50.12702 7.65012 13677 ft 408 kts 125°
2026-05-07 10:20 50.11045 7.68581 12943 ft 405 kts 125°
2026-05-07 10:20 50.09420 7.72136 12627 ft 395 kts 124°
2026-05-07 10:21 50.07901 7.75542 12484 ft 368 kts 124°
2026-05-07 10:21 50.06511 7.78701 12353 ft 339 kts 124°
2026-05-07 10:21 50.05229 7.81623 12192 ft 316 kts 123°
2026-05-07 10:21 50.04007 7.84401 11770 ft 307 kts 124°
2026-05-07 10:22 50.02809 7.87145 11385 ft 306 kts 121°
2026-05-07 10:22 50.01840 7.90072 11038 ft 303 kts 111°
2026-05-07 10:22 50.01207 7.93171 10697 ft 300 kts 102°
2026-05-07 10:22 50.00909 7.96370 10359 ft 297 kts 92°
2026-05-07 10:23 50.00944 7.99564 9999 ft 295 kts 82°
2026-05-07 10:23 50.01301 8.02687 9600 ft 292 kts 72°
2026-05-07 10:23 50.01954 8.05661 9255 ft 289 kts 66°
2026-05-07 10:23 50.02669 8.08562 8873 ft 286 kts 67°
2026-05-07 10:24 50.03374 8.11455 8499 ft 284 kts 67°
2026-05-07 10:24 50.04068 8.14319 8134 ft 281 kts 67°
2026-05-07 10:24 50.04725 8.17038 7774 ft 279 kts 66°
2026-05-07 10:24 50.05395 8.19815 7406 ft 276 kts 66°
2026-05-07 10:25 50.06071 8.22604 7034 ft 274 kts 67°
2026-05-07 10:25 50.06740 8.25364 6638 ft 273 kts 67°
2026-05-07 10:25 50.07409 8.28134 6219 ft 273 kts 67°
2026-05-07 10:25 50.08076 8.30897 5816 ft 272 kts 67°
2026-05-07 10:26 50.08740 8.33643 5429 ft 269 kts 67°
2026-05-07 10:26 50.09396 8.36360 5046 ft 267 kts 68°
2026-05-07 10:26 50.10050 8.39067 4656 ft 265 kts 68°
2026-05-07 10:26 50.10697 8.41755 4247 ft 264 kts 68°
2026-05-07 10:27 50.11333 8.44409 4001 ft 261 kts 67°
2026-05-07 10:27 50.11967 8.47061 4007 ft 261 kts 67°
2026-05-07 10:27 50.12602 8.49710 4008 ft 261 kts 67°
2026-05-07 10:27 50.13239 8.52357 4009 ft 261 kts 67°
2026-05-07 10:28 50.13864 8.54973 4007 ft 261 kts 67°
2026-05-07 10:28 50.14494 8.57619 4006 ft 261 kts 67°
2026-05-07 10:28 50.15117 8.60243 4004 ft 251 kts 67°
2026-05-07 10:28 50.15706 8.62735 4005 ft 242 kts 67°
2026-05-07 10:29 50.16287 8.65182 4005 ft 241 kts 67°
2026-05-07 10:29 50.16871 8.67641 4005 ft 240 kts 67°
2026-05-07 10:29 50.17452 8.70084 4005 ft 240 kts 67°
2026-05-07 10:30 50.18616 8.74985 4000 ft 240 kts 67°
2026-05-07 10:30 50.19199 8.77434 4000 ft 241 kts 67°
2026-05-07 10:30 50.19777 8.79881 3997 ft 240 kts 67°
2026-05-07 10:30 50.20355 8.82334 4000 ft 240 kts 68°
2026-05-07 10:31 50.20930 8.84776 3996 ft 240 kts 68°
2026-05-07 10:31 50.21509 8.87231 3993 ft 240 kts 68°
2026-05-07 10:31 50.22075 8.89650 3993 ft 240 kts 68°
2026-05-07 10:31 50.22652 8.92132 3992 ft 241 kts 69°
2026-05-07 10:32 50.22908 8.94678 3991 ft 244 kts 93°
2026-05-07 10:32 50.22397 8.97194 3995 ft 247 kts 121°
2026-05-07 10:32 50.21199 8.99027 3988 ft 242 kts 150°
2026-05-07 10:32 50.19608 8.99773 3992 ft 240 kts 178°
2026-05-07 10:33 50.17988 8.99314 3989 ft 239 kts 206°
2026-05-07 10:33 50.16565 8.97992 3996 ft 238 kts 214°
2026-05-07 10:33 50.15168 8.96610 3995 ft 238 kts 214°
2026-05-07 10:33 50.13767 8.95224 3996 ft 239 kts 216°
2026-05-07 10:34 50.12550 8.93510 3996 ft 235 kts 234°
2026-05-07 10:34 50.11738 8.91319 4002 ft 233 kts 249°
2026-05-07 10:34 50.11158 8.88970 4000 ft 229 kts 253°
2026-05-07 10:34 50.10637 8.86717 3994 ft 215 kts 253°
2026-05-07 10:35 50.10138 8.84578 3876 ft 208 kts 253°
2026-05-07 10:35 50.09642 8.82462 3617 ft 208 kts 252°
2026-05-07 10:35 50.09142 8.80341 3343 ft 209 kts 253°
2026-05-07 10:35 50.08642 8.78223 3075 ft 207 kts 252°
2026-05-07 10:36 50.08162 8.76190 2796 ft 199 kts 252°
2026-05-07 10:36 50.07693 8.74208 2526 ft 191 kts 252°
2026-05-07 10:36 50.07248 8.72328 2260 ft 178 kts 253°
2026-05-07 10:36 50.06832 8.70572 2025 ft 168 kts 253°
2026-05-07 10:37 50.06440 8.68918 1812 ft 158 kts 252°
2026-05-07 10:37 50.06071 8.67364 1612 ft 146 kts 253°
2026-05-07 10:37 50.05731 8.65929 1395 ft 138 kts 253°
2026-05-07 10:37 50.05401 8.64535 1199 ft 137 kts 253°
2026-05-07 10:38 50.05082 8.63158 1016 ft 135 kts 252°
2026-05-07 10:38 50.04732 8.61798 836 ft 135 kts 250°
2026-05-07 10:38 50.04390 8.60442 654 ft 135 kts 253°
2026-05-07 10:38 50.04093 8.59079 464 ft 132 kts 254°
2026-05-07 10:39 50.03799 8.57770 365 ft 119 kts 245°
2026-05-07 10:39 50.03540 8.56711 357 ft 87 kts 249°
2026-05-07 10:39 50.03373 8.56017 356 ft 54 kts 249°
2026-05-07 10:39 50.03258 8.55642 347 ft 21 kts 223°
2026-05-07 10:40 50.03191 8.55519 346 ft 14 kts 222°
2026-05-07 10:40 50.03134 8.55444 348 ft 11 kts 218°
2026-05-07 10:40 50.03074 8.55370 348 ft 10 kts 220°
2026-05-07 10:40 50.03059 8.55350 344 ft 0 kts 220°
2026-05-07 10:41 50.03054 8.55344 344 ft 1 kts 220°
2026-05-07 10:41 50.03047 8.55334 339 ft 3 kts 220°
2026-05-07 10:41 50.03027 8.55303 348 ft 0 kts 226°
2026-05-07 10:42 50.03026 8.55303 348 ft 0 kts 224°
2026-05-07 10:43 50.03021 8.55308 346 ft 1 kts 160°
2026-05-07 10:43 50.03021 8.55327 348 ft 4 kts 94°
2026-05-07 10:43 50.03040 8.55415 343 ft 13 kts 69°
2026-05-07 10:43 50.03081 8.55586 349 ft 21 kts 70°
2026-05-07 10:44 50.03136 8.55815 352 ft 18 kts 69°
2026-05-07 10:44 50.03181 8.56001 353 ft 18 kts 70°
2026-05-07 10:44 50.03224 8.56181 355 ft 18 kts 69°
2026-05-07 10:44 50.03266 8.56358 351 ft 17 kts 70°
2026-05-07 10:45 50.03307 8.56529 353 ft 16 kts 69°
2026-05-07 10:45 50.03344 8.56688 352 ft 15 kts 70°
2026-05-07 10:45 50.03372 8.56805 353 ft 6 kts 70°
2026-05-07 10:45 50.03385 8.56858 358 ft 4 kts 69°
2026-05-07 10:46 50.03393 8.56892 358 ft 3 kts 69°
2026-05-07 10:46 50.03397 8.56909 355 ft 1 kts 69°
2026-05-07 10:46 50.03398 8.56912 354 ft 0 kts 69°
2026-05-07 10:47 50.03409 8.56957 354 ft 11 kts 70°
2026-05-07 10:47 50.03453 8.57141 357 ft 24 kts 71°
2026-05-07 10:47 50.03512 8.57394 358 ft 25 kts 69°
2026-05-07 10:48 50.03566 8.57611 363 ft 21 kts 69°
2026-05-07 10:48 50.03612 8.57802 363 ft 7 kts 70°
2026-05-07 10:48 50.03625 8.57861 362 ft 5 kts 70°
2026-05-07 10:48 50.03634 8.57901 363 ft 3 kts 70°
2026-05-07 10:49 50.03641 8.57929 363 ft 2 kts 69°
2026-05-07 10:49 50.03646 8.57951 362 ft 5 kts 70°
2026-05-07 10:49 50.03663 8.58030 361 ft 6 kts 75°
2026-05-07 10:49 50.03666 8.58048 367 ft 0 kts 76°
2026-05-07 10:50 50.03666 8.58057 365 ft 3 kts 84°
2026-05-07 10:50 50.03628 8.58100 360 ft 13 kts 177°
2026-05-07 10:51 50.03525 8.58093 357 ft 10 kts 172°
2026-05-07 10:51 50.03479 8.58115 363 ft 5 kts 162°
2026-05-07 10:51 50.03445 8.58136 360 ft 5 kts 157°
2026-05-07 10:51 50.03412 8.58156 361 ft 5 kts 160°
2026-05-07 10:52 50.03379 8.58173 361 ft 5 kts 161°
2026-05-07 10:52 50.03348 8.58193 359 ft 5 kts 157°
2026-05-07 10:52 50.03336 8.58183 358 ft 1 kts 251°
2026-05-07 10:52 50.03338 8.58175 360 ft 3 kts 274°
2026-05-07 10:53 50.03361 8.58114 365 ft 11 kts 309°
2026-05-07 10:53 50.03374 8.58089 362 ft 1 kts 309°
2026-05-07 10:53 50.03374 8.58053 362 ft 6 kts 242°
2026-05-07 10:53 50.03364 8.58019 357 ft 0 kts 248°
2026-05-07 10:54 50.03364 8.58018 357 ft 0 kts 249°